Orbital Elements at Epoch 2459000.5 (2020-May-31.0) TDB
Reference: JPL 27 (heliocentric ecliptic J2000)
Element | Value | Uncertainty (1-sigma) | Units |
e | .1731885224121896 | 3.4107e-08 | |
a | 2.136713967589418 | 7.3453e-09 | au |
q | 1.766659632725119 | 6.9932e-08 | au |
i | .9702946650177535 | 3.6066e-06 | deg |
node | 312.5243955854775 | 0.00020107 | deg |
peri | 333.5330729411285 | 0.00020162 | deg |
M | 243.8716472006525 | 1.8152e-05 | deg |
tp | 2459368.505047549905 (2021-Jun-03.00504755) | 5.8608e-05 | TDB |
period | 1140.822322235766 3.12 | 5.8826e-06 1.611e-08 | d yr |
n | .315561847785795 | 1.6272e-09 | deg/d |
Q | 2.506768302453716 | 8.6174e-09 | au |
|
| | Orbit Determination Parameters
Additional Information
|